Weather History for Burlington, CO

Change the Weather History Date:

Saturday, August 24, 2013

  Actual Average Record
Temperature  
Mean Temperature 80 °F 71 °F  
Max Temperature 96 °F 85 °F 99 °F (1943)
Min Temperature 64 °F 57 °F 43 °F (1928)
Cooling Degree Days 15    
Growing Degree Days 30 (Base 50)    
Moisture  
Dew Point 52 °F    
Average Humidity 41    
Maximum Humidity 68    
Minimum Humidity 19    
Precipitation  
Precipitation 0.00 in 0.07 in 0.83 in (1977)
Month to date precipitation 1.86 1.88  
Year to date precipitation 10.39 13.62  
Sea Level Pressure  
Sea Level Pressure 29.86 in    
Wind  
Wind Speed 14 mph (South)    
Max Wind Speed 23 mph    
Max Gust Speed 32 mph    
Visibility 10 miles    
Events      
T = Trace of Precipitation, MM = Missing Value Source: NWS Daily Summary

Daily Weather History Graph

Daily Weather History Graph

Search for Another Location

Airport:

Trip Planner

Search our weather history database for the weather conditions in past years. The results will help you decide how hot, cold, wet, or windy it might be!

Date:

Astronomy

Aug. 24, 2013 Rise Set
Actual Time 6:10 AM MDT 7:31 PM MDT
Civil Twilight 5:42 AM MDT 7:59 PM MDT
Nautical Twilight 5:09 AM MDT 8:32 PM MDT
Astronomical Twilight 4:33 AM MDT 9:07 PM MDT
Moon 9:29 PM MDT (8/24) 10:10 AM MDT (8/24)
Length of Visible Light 14h 16m
Length of Day
13h 20m
Waning Gibbous, 84% of the Moon is Illuminated
Aug 24
Waning Gibbous
Aug 28
Last Quarter
Sep 5
New
Sep 12
First Quarter
Sep 19
Full

Hourly Weather History & Observations

Time (MDT) Temp. Heat Index Dew Point Humidity Pressure Visibility Wind Dir Wind Speed Gust Speed Precip Events Conditions
12:53 AM 72.0 °F - 53.1 °F 51% 29.86 in 10.0 mi South 11.5 mph - N/A   Clear
1:53 AM 70.0 °F - 53.1 °F 55% 29.85 in 10.0 mi South 11.5 mph - N/A   Clear
2:53 AM 70.0 °F - 54.0 °F 57% 29.84 in 10.0 mi South 12.7 mph - N/A   Clear
3:53 AM 66.9 °F - 54.0 °F 63% 29.85 in 10.0 mi South 11.5 mph - N/A   Clear
4:53 AM 66.0 °F - 54.0 °F 65% 29.85 in 10.0 mi South 11.5 mph - N/A   Clear
5:53 AM 64.9 °F - 54.0 °F 68% 29.86 in 10.0 mi South 11.5 mph - N/A   Clear
6:53 AM 66.0 °F - 54.0 °F 65% 29.88 in 10.0 mi South 11.5 mph - N/A   Clear
7:53 AM 72.0 °F - 55.0 °F 55% 29.89 in 10.0 mi South 12.7 mph - N/A   Clear
8:53 AM 79.0 °F - 55.0 °F 44% 29.89 in 10.0 mi SSW 20.7 mph 24.2 mph N/A   Clear
9:53 AM 82.9 °F 81.9 °F 54.0 °F 37% 29.88 in 10.0 mi SSW 18.4 mph 27.6 mph N/A   Clear
10:53 AM 86.0 °F 84.0 °F 53.1 °F 32% 29.88 in 10.0 mi SSW 15.0 mph 27.6 mph N/A   Clear
11:53 AM 89.1 °F 86.9 °F 54.0 °F 30% 29.87 in 10.0 mi SSW 18.4 mph 29.9 mph N/A   Clear
12:53 PM 93.0 °F - 50.0 °F 23% 29.86 in 10.0 mi SSW 17.3 mph 29.9 mph N/A   Clear
1:53 PM 93.9 °F - 48.0 °F 21% 29.84 in 10.0 mi South 15.0 mph 25.3 mph N/A   Clear
2:53 PM 96.1 °F - 48.0 °F 19% 29.82 in 10.0 mi South 20.7 mph 26.5 mph N/A   Clear
3:53 PM 95.0 °F - 46.9 °F 19% 29.82 in 10.0 mi SSW 12.7 mph 19.6 mph N/A   Partly Cloudy
4:53 PM 93.9 °F - 48.9 °F 21% 29.82 in 10.0 mi South 19.6 mph 32.2 mph N/A   Partly Cloudy
5:53 PM 91.9 °F - 48.0 °F 22% 29.82 in 10.0 mi South 23.0 mph 32.2 mph N/A   Clear
6:53 PM 88.0 °F - 48.0 °F 25% 29.84 in 10.0 mi South 17.3 mph - N/A   Clear
7:53 PM 82.9 °F - 48.9 °F 31% 29.86 in 10.0 mi South 13.8 mph - N/A   Clear
8:53 PM 80.1 °F - 52.0 °F 38% 29.88 in 10.0 mi South 16.1 mph 23.0 mph N/A   Clear
9:53 PM 79.0 °F - 55.0 °F 44% 29.89 in 10.0 mi South 19.6 mph 26.5 mph N/A   Clear
10:53 PM 78.1 °F - 55.0 °F 45% 29.91 in 10.0 mi South 17.3 mph 25.3 mph N/A   Clear
11:53 PM 77.0 °F - 55.0 °F 47% 29.92 in 10.0 mi South 17.3 mph 25.3 mph N/A   Clear